Wind_Speed
34 31 30 30 28 27 25 24 23 22 20 18 16 15 14 12 9 9 8 8 6 6 6 6 7 7 8 9 10 11 12 13 14 15 16 18 19 20 22 23 24 26 26 26
38 35 33 32 30 28 26 25 25 23 20 18 16 15 15 14 12 11 10 9 8 8 7 8 9 10 10 11 12 13 14 14 16 17 18 20 21 22 24 26 27 28 28 29
41 38 36 35 32 30 28 27 27 25 22 20 18 17 16 14 13 13 11 10 10 10 10 10 11 11 12 13 15 15 16 17 18 20 21 22 24 25 26 27 29 31 32 32
46 43 43 37 33 32 31 30 29 27 25 23 21 19 17 16 14 12 11 11 11 12 12 13 13 14 15 16 17 18 19 20 22 22 24 26 26 27 29 30 30 31 32 34
48 46 44 40 36 34 33 33 31 28 27 25 24 20 18 17 15 15 14 13 13 13 14 14 15 16 18 19 20 21 21 23 24 25 26 27 28 29 29 31 31 33 34 34
47 47 46 41 38 35 35 35 32 31 29 27 24 21 18 18 17 17 16 15 15 15 16 17 17 18 19 21 22 23 23 24 26 27 27 28 29 30 31 32 33 34 34 33
45 47 46 42 41 38 37 35 31 30 29 26 23 20 18 17 17 17 17 18 18 18 18 19 19 20 21 22 24 25 26 26 27 27 28 30 30 30 31 32 32 34 35 35
44 46 47 43 39 39 38 35 32 32 30 27 24 21 18 17 17 18 18 19 19 19 20 20 21 22 23 24 25 26 28 28 29 30 30 31 33 34 33 34 35 36 37 38
39 41 40 39 39 37 36 34 31 30 28 26 24 21 18 17 18 19 19 19 20 21 21 22 23 24 25 26 27 28 29 30 31 32 33 34 35 36 36 36 36 37 38 39
30 31 32 34 35 34 33 33 30 28 27 23 21 21 19 18 18 19 20 21 22 22 23 23 24 26 27 28 29 30 31 32 33 34 35 35 36 37 37 37 38 39 40 41
23 24 25 27 28 29 29 27 25 23 23 22 20 19 19 19 19 19 20 21 21 22 23 24 25 26 28 29 30 31 32 33 34 35 35 36 37 38 39 39 40 41 42 44
18 18 19 21 23 23 24 22 21 21 19 19 18 17 17 18 19 19 20 21 22 23 24 25 26 27 29 30 31 32 33 34 35 36 37 38 39 39 40 41 43 44 45 46
11 14 15 16 17 17 18 17 17 17 16 15 16 16 17 18 19 19 21 22 23 24 25 26 27 29 30 31 32 33 35 36 36 37 38 39 40 41 42 44 45 46 47 48
7 8 9 9 10 11 12 13 13 13 12 12 13 14 16 17 19 20 22 23 24 25 26 27 29 30 31 33 34 35 36 37 38 39 40 41 42 43 45 46 47 48 49 50
4 5 6 7 7 8 9 10 11 11 11 12 13 15 16 18 20 21 22 23 25 26 27 29 30 32 34 35 36 37 38 39 40 41 43 44 45 45 46 47 48 49 50 51
4 5 6 8 8 9 9 10 10 11 12 13 15 17 18 20 21 23 24 25 26 28 29 31 32 34 35 36 37 38 39 41 42 43 44 45 46 47 48 49 49 50 50 50
6 5 5 6 7 8 9 10 11 12 14 15 17 18 20 21 22 24 25 27 29 30 31 33 34 35 36 37 39 40 41 42 43 44 45 45 46 46 47 47 47 47 47 47
6 6 6 7 8 9 11 12 13 15 16 17 19 20 21 23 24 26 27 28 30 31 33 34 36 38 39 40 41 41 42 43 44 44 45 45 45 46 46 46 46 45 45 45
9 9 9 10 11 12 13 14 15 16 17 18 20 21 23 24 26 27 29 30 32 33 34 36 38 39 40 41 41 41 42 43 43 44 44 44 45 44 44 43 43 42 41 40
10 10 11 12 12 13 14 15 16 18 19 20 22 23 24 25 27 29 30 31 33 35 36 38 39 39 40 40 41 41 42 42 42 42 42 42 42 41 41 40 39 38 36 35
12 12 13 14 15 15 16 17 19 20 21 22 23 24 26 28 29 31 32 33 35 36 38 38 39 39 39 40 40 40 40 40 40 39 39 39 39 38 37 35 34 33 32 30
14 15 15 16 17 18 19 20 21 23 24 25 26 27 29 30 32 33 34 35 36 37 38 38 38 37 38 38 38 37 37 37 37 36 36 35 34 33 32 31 30 29 28 26
16 17 18 19 20 21 22 23 24 25 26 27 29 30 32 33 34 35 35 36 36 36 36 36 35 35 36 36 35 35 35 34 34 34 33 32 31 30 29 28 27 25 24 23
18 19 20 21 22 23 24 25 26 27 28 30 31 33 33 34 34 34 35 35 35 35 34 34 33 33 34 34 34 33 33 32 32 31 30 29 28 28 27 26 24 22 22 21
19 20 22 23 24 25 26 28 29 30 31 32 32 33 33 33 33 33 33 33 33 32 32 32 32 32 32 31 31 30 30 30 29 28 27 27 26 25 24 22 21 20 20 20
22 23 24 25 26 27 28 29 30 31 31 32 32 32 32 31 31 31 30 30 30 30 30 30 30 29 28 28 28 28 27 27 26 25 25 24 24 23 21 21 20 19 19 18
25 26 26 27 27 28 28 28 29 30 30 31 31 30 29 29 28 28 27 27 27 27 27 27 27 27 26 26 26 25 25 24 23 23 23 23 22 21 20 20 19 19 18 18
Wind_Direction
243 245 246 250 253 259 266 268 268 273 278 279 287 293 296 302 305 310 302 294 294 287 277 270 269 269 263 255 253 255 257 255 254 254 253 254 258 258 257 258 260 260 261 261
243 245 247 248 252 258 262 263 264 268 275 279 283 287 289 291 293 295 290 285 283 280 276 270 268 266 265 263 263 263 265 265 262 264 264 262 263 265 265 263 264 265 266 267
242 244 247 248 250 254 257 258 262 266 270 274 277 280 285 285 283 284 277 277 279 276 274 272 269 269 267 265 266 267 268 269 267 270 270 268 268 269 270 268 269 268 267 266
243 244 246 249 251 253 255 257 262 265 265 268 269 272 275 275 275 274 272 273 273 274 275 275 273 272 272 271 271 271 271 272 271 272 273 271 270 270 270 270 272 272 270 268
241 242 245 245 248 250 253 255 258 262 264 266 268 266 268 270 267 269 271 271 271 273 276 276 277 278 278 278 279 278 278 279 279 278 277 275 275 275 275 275 276 276 274 274
240 241 243 244 245 248 251 252 254 258 260 266 260 257 265 265 265 267 268 273 273 273 276 277 278 280 280 280 281 282 281 283 283 282 282 281 281 282 280 279 278 278 277 277
241 242 243 242 242 245 248 252 254 256 261 261 257 255 258 262 265 268 272 273 272 272 273 275 277 277 279 281 281 282 283 285 285 285 286 286 286 288 284 282 281 280 279 279
240 242 242 242 242 243 248 251 253 254 255 258 252 251 253 259 264 267 272 270 267 269 272 274 276 278 279 282 282 283 283 284 285 286 287 287 286 287 285 284 284 282 281 281
241 244 243 241 243 244 245 248 249 252 254 254 247 248 250 253 258 262 266 268 269 270 271 274 276 279 280 282 283 284 285 285 285 286 286 287 287 287 286 285 284 284 283 283
241 242 244 244 245 245 246 246 246 248 250 245 245 248 247 251 257 260 263 267 269 271 273 275 277 279 282 283 283 284 285 286 286 286 287 287 287 287 286 286 286 286 285 285
241 240 241 244 245 245 246 242 242 242 248 247 245 244 245 253 259 262 265 267 269 272 275 277 278 280 281 283 284 286 286 287 287 287 288 288 288 288 288 288 288 287 286 286
237 238 236 238 239 243 238 234 238 241 238 236 238 242 249 256 262 266 267 269 271 273 275 277 280 282 283 284 285 286 286 287 287 287 288 288 288 289 289 289 288 288 287 287
233 226 226 230 231 228 228 232 232 231 232 237 242 247 254 258 262 266 268 271 274 277 278 280 281 283 285 286 287 288 288 288 288 289 290 290 289 289 289 289 289 289 289 290
211 207 205 215 222 224 225 229 235 234 235 240 248 254 258 262 266 270 273 275 278 281 281 283 284 285 286 287 288 289 290 290 290 291 291 291 291 291 291 291 291 291 291 291
207 210 216 227 227 227 225 226 233 242 250 256 260 263 267 270 273 275 277 280 282 283 284 285 287 288 289 289 290 291 292 293 294 293 293 293 293 293 293 293 293 293 293 293
213 212 219 226 229 235 238 244 251 258 262 265 267 269 272 275 278 280 282 284 284 285 286 288 289 291 292 293 293 294 295 295 295 295 295 295 295 294 294 294 294 294 293 293
226 229 236 242 243 250 256 260 262 265 268 270 272 274 276 279 281 282 284 285 287 288 289 290 292 294 295 295 296 296 296 296 296 296 296 296 296 296 296 295 295 295 294 293
241 247 255 259 259 261 263 265 267 270 273 275 276 277 278 280 281 284 287 290 291 291 292 293 294 295 296 296 297 297 297 297 297 297 297 297 297 297 296 296 296 295 295 295
251 253 259 264 266 266 267 269 272 274 277 279 280 282 283 285 286 288 290 291 293 294 296 296 297 298 298 298 298 298 298 298 298 298 298 298 298 298 298 297 297 297 297 297
261 264 268 270 272 273 276 279 280 282 284 286 287 288 288 289 291 292 294 295 296 297 298 298 299 300 300 299 299 299 299 299 299 300 300 300 300 300 300 299 299 299 299 299
264 269 274 277 278 280 282 284 285 286 287 288 289 290 292 293 294 295 296 298 298 299 300 300 300 300 300 301 301 300 301 301 301 301 301 302 302 302 302 301 301 301 301 301
269 274 277 280 281 283 283 285 286 288 290 290 291 293 295 296 296 297 298 299 300 300 300 300 301 301 302 302 303 302 302 303 303 304 304 305 305 305 304 304 304 304 303 303
272 275 278 281 283 284 286 288 289 291 291 293 294 296 297 298 299 299 300 301 301 301 301 302 302 303 304 304 305 305 305 305 306 307 308 308 308 308 307 307 307 306 305 305
277 279 280 282 284 286 287 289 290 291 292 293 295 296 298 298 299 299 300 301 302 302 303 303 303 304 304 305 305 306 306 307 308 309 309 309 309 310 309 309 308 307 308 309
277 279 280 282 284 286 288 289 291 292 293 294 295 296 297 298 298 300 301 302 303 303 303 303 303 305 305 306 306 307 308 309 309 310 311 311 311 311 311 311 310 310 310 310
281 283 285 286 286 288 289 290 292 293 294 295 296 296 296 297 299 300 302 304 305 305 305 305 306 306 306 307 308 309 311 311 311 311 312 313 313 314 314 313 312 311 311 311
284 286 287 288 289 290 291 292 293 294 295 297 297 297 297 297 299 300 302 305 306 306 307 308 308 308 308 309 310 311 312 312 312 313 314 315 315 315 315 315 314 312 312 312
Height
5820 5823 5825 5827 5829 5830 5831 5831 5832 5832 5832 5833 5833 5833 5833 5833 5832 5832 5832 5832 5833 5832 5832 5832 5833 5833 5833 5833 5834 5834 5834 5834 5835 5835 5835 5835 5836 5836 5836 5836 5836 5835 5835 5834
5813 5816 5819 5820 5823 5824 5825 5826 5826 5827 5827 5828 5828 5829 5829 5829 5829 5829 5829 5829 5829 5829 5829 5830 5830 5830 5830 5830 5830 5830 5830 5830 5830 5830 5830 5830 5830 5830 5830 5829 5829 5827 5827 5826
5807 5810 5811 5814 5817 5818 5820 5820 5822 5822 5824 5824 5824 5825 5824 5824 5825 5825 5825 5825 5826 5826 5826 5826 5826 5826 5826 5827 5826 5826 5825 5825 5824 5824 5824 5824 5823 5823 5822 5821 5820 5818 5817 5816
5797 5802 5803 5810 5811 5812 5813 5814 5816 5817 5818 5818 5819 5820 5820 5820 5820 5820 5821 5821 5821 5822 5822 5821 5821 5821 5821 5821 5821 5821 5820 5819 5818 5818 5817 5816 5815 5814 5813 5812 5810 5808 5807 5806
5787 5790 5794 5800 5803 5804 5805 5806 5809 5810 5811 5812 5813 5814 5815 5815 5815 5815 5815 5816 5816 5817 5817 5816 5816 5816 5815 5815 5814 5814 5813 5812 5811 5810 5809 5808 5807 5805 5803 5802 5801 5799 5798 5796
5778 5781 5784 5792 5795 5796 5799 5798 5802 5803 5805 5806 5806 5808 5809 5809 5809 5810 5810 5811 5811 5811 5811 5810 5810 5810 5809 5809 5807 5806 5805 5804 5803 5802 5800 5799 5798 5796 5795 5793 5791 5789 5787 5785
5767 5771 5775 5781 5785 5788 5791 5793 5795 5796 5797 5798 5800 5802 5803 5804 5804 5805 5805 5805 5805 5805 5805 5804 5804 5803 5803 5802 5800 5799 5798 5797 5795 5794 5792 5791 5789 5787 5786 5784 5782 5780 5777 5776
5758 5761 5768 5772 5776 5780 5783 5785 5787 5789 5790 5791 5793 5794 5796 5797 5798 5799 5799 5799 5799 5799 5798 5798 5797 5797 5796 5795 5794 5792 5791 5789 5788 5786 5784 5782 5780 5778 5776 5773 5771 5769 5767 5765
5751 5756 5760 5763 5767 5771 5774 5777 5779 5781 5782 5784 5785 5787 5789 5791 5792 5793 5793 5793 5793 5793 5792 5792 5791 5790 5789 5787 5786 5784 5782 5781 5779 5777 5775 5772 5770 5768 5765 5763 5761 5758 5756 5754
5744 5748 5751 5755 5759 5762 5765 5768 5770 5773 5775 5776 5778 5780 5783 5784 5785 5786 5786 5787 5786 5786 5785 5784 5783 5782 5781 5779 5777 5776 5774 5771 5769 5767 5765 5762 5760 5757 5755 5752 5750 5747 5744 5741
5738 5741 5743 5746 5750 5754 5758 5760 5762 5765 5767 5769 5771 5773 5775 5777 5778 5779 5780 5780 5779 5779 5778 5777 5775 5774 5772 5771 5769 5767 5764 5762 5759 5757 5754 5752 5749 5746 5744 5741 5738 5735 5731 5728
5734 5736 5738 5741 5744 5748 5751 5752 5754 5758 5760 5762 5764 5767 5769 5770 5771 5772 5772 5772 5772 5771 5770 5769 5768 5766 5764 5762 5760 5758 5755 5752 5750 5747 5744 5741 5738 5735 5731 5728 5725 5721 5717 5714
5729 5731 5734 5736 5738 5741 5744 5747 5749 5752 5755 5757 5759 5761 5763 5764 5764 5764 5765 5764 5764 5763 5762 5761 5759 5757 5755 5753 5751 5748 5745 5742 5739 5736 5733 5730 5726 5722 5719 5715 5711 5707 5703 5698
5727 5729 5731 5733 5735 5738 5740 5743 5745 5748 5750 5752 5754 5755 5756 5757 5757 5757 5757 5757 5756 5755 5754 5752 5750 5748 5746 5744 5741 5738 5735 5732 5728 5725 5721 5717 5713 5709 5705 5701 5696 5691 5687 5682
5725 5727 5729 5731 5733 5735 5738 5739 5741 5743 5745 5747 5748 5749 5749 5750 5750 5750 5750 5749 5748 5747 5745 5743 5741 5739 5736 5733 5730 5727 5724 5720 5716 5712 5708 5704 5700 5695 5690 5686 5681 5676 5671 5666
5724 5726 5728 5730 5731 5733 5735 5736 5738 5739 5741 5742 5742 5743 5743 5743 5743 5743 5742 5741 5739 5738 5736 5734 5731 5728 5725 5722 5719 5715 5712 5708 5703 5699 5695 5690 5685 5680 5675 5670 5665 5660 5655 5650
5723 5724 5725 5727 5728 5730 5731 5733 5734 5735 5735 5736 5736 5736 5736 5736 5736 5735 5734 5732 5731 5729 5726 5723 5720 5717 5714 5710 5707 5703 5699 5695 5690 5685 5680 5676 5671 5666 5660 5655 5650 5645 5640 5635
5720 5722 5723 5724 5726 5727 5728 5729 5730 5730 5730 5730 5730 5730 5730 5729 5728 5727 5725 5723 5721 5718 5716 5712 5709 5706 5702 5698 5695 5690 5686 5681 5676 5671 5666 5661 5656 5651 5646 5640 5635 5630 5625 5620
5717 5718 5720 5721 5722 5723 5724 5724 5725 5725 5725 5724 5724 5723 5722 5721 5720 5718 5716 5714 5711 5708 5705 5701 5698 5694 5690 5686 5682 5677 5673 5668 5663 5658 5653 5648 5642 5637 5632 5626 5621 5616 5612 5607
5714 5715 5716 5717 5718 5718 5718 5718 5718 5718 5717 5717 5716 5715 5714 5712 5710 5708 5706 5703 5700 5697 5693 5690 5686 5682 5678 5674 5669 5664 5660 5655 5650 5644 5639 5634 5629 5624 5619 5614 5609 5604 5600 5595
5710 5711 5711 5712 5712 5712 5712 5712 5711 5711 5710 5709 5708 5707 5705 5703 5701 5698 5696 5693 5689 5685 5681 5677 5674 5670 5665 5661 5656 5652 5647 5642 5637 5632 5628 5623 5618 5612 5607 5603 5598 5594 5590 5586
5705 5706 5706 5706 5706 5706 5706 5705 5705 5704 5703 5701 5700 5698 5696 5693 5690 5687 5684 5681 5677 5673 5670 5666 5662 5658 5653 5649 5644 5640 5635 5631 5626 5621 5617 5612 5607 5602 5597 5593 5589 5585 5581 5577
5700 5700 5700 5700 5700 5699 5698 5697 5696 5695 5694 5692 5690 5688 5685 5682 5679 5676 5673 5670 5666 5662 5659 5655 5650 5646 5642 5638 5633 5629 5625 5620 5616 5611 5607 5602 5598 5593 5589 5585 5581 5577 5574 5570
5694 5694 5694 5693 5692 5692 5690 5689 5688 5687 5685 5683 5680 5678 5675 5672 5669 5666 5663 5659 5656 5652 5648 5644 5640 5636 5632 5628 5623 5619 5615 5611 5607 5602 5598 5594 5590 5585 5581 5577 5574 5570 5567 5564
5688 5688 5687 5686 5685 5684 5683 5681 5680 5678 5676 5673 5671 5668 5665 5662 5660 5656 5653 5649 5645 5642 5638 5634 5630 5627 5623 5619 5615 5611 5607 5603 5598 5594 5590 5586 5582 5578 5574 5571 5568 5565 5562 5559
5681 5680 5679 5678 5677 5676 5674 5672 5670 5668 5666 5663 5661 5658 5655 5653 5650 5646 5643 5640 5636 5633 5629 5626 5622 5618 5614 5610 5606 5603 5599 5595 5591 5587 5584 5580 5576 5572 5569 5565 5562 5559 5556 5554
5673 5672 5671 5670 5668 5667 5665 5663 5661 5659 5656 5654 5651 5648 5646 5643 5640 5637 5634 5631 5628 5625 5621 5618 5614 5611 5607 5603 5599 5596 5592 5588 5585 5582 5578 5574 5571 5567 5564 5560 5557 5554 5552 5549